Weather Roundup
Issued by NWS Chicago, IL

Home | Current Version | Previous Version | Graphics & Text | Print | Product List | Glossary On
Versions: 1 2 3 4 5 6 7 8 9 10 11 12 13 14 15 16 17 18 19 20 21 22 23 24 25 26 27 28 29 30 31 32 33 34 35 36 37 38 39 40 41 42 43 44 45 46 47 48 49 50
000
NZUS59 KLOT 061510
HRRLOT

CHICAGO AREA WEATHER ROUNDUP
NATIONAL WEATHER SERVICE CHICAGO/ROMEOVILLE IL
900 AM CST FRI MAR 06 2015

NOTE: "FAIR" INDICATES FEW OR NO CLOUDS BELOW 12,000 FEET WITH NO
SIGNIFICANT WEATHER AND/OR OBSTRUCTIONS TO VISIBILITY.

* THESE STATIONS ARE NOT UNDER NWS QUALITY CONTROL. THEY ALSO MAY NOT
  REPORT WEATHER SUCH AS PRECIPITATION OR FOG.

ILZ005-006-012>014-019>023-061600-
NORTHEAST ILLINOIS

CITY           SKY/WX    TMP DP  RH WIND       PRES   REMARKS
OHARE          PTSUNNY   12   1  61 SW18G24   30.40F WCI  -6
MIDWAY         PTSUNNY   14   2  58 S14       30.43F WCI  -1
AURORA         SUNNY      8   0  69 S13       30.41F WCI  -8
LANSING*       SUNNY     10   1  68 SW12      30.47S WCI  -5
JOLIET*        MOSUNNY   13   3  65 S12G17    30.44F WCI  -1
WAUKEGAN       SUNNY     13   2  61 S15       30.36F WCI  -3
DUPAGE AIRPORT SUNNY      9   0  67 S15       30.40F WCI  -8
WHEELING       SUNNY     14   1  56 SW13      30.41F WCI   0
KANKAKEE*      SUNNY     11   3  71 S16       30.47F WCI  -6
MORRIS*        SUNNY     10   3  73 S14       30.44F WCI  -6
LEWIS AIRPORT* SUNNY     12   3  68 S14       30.43F WCI  -3
NORTHERLY IS     N/A     13   0  56 S16         N/A  WCI  -3
$$

WIZ051-052-058>065-066-070>072-061600-
SOUTHEAST WISCONSIN

CITY           SKY/WX    TMP DP  RH WIND       PRES   REMARKS
MILWAUKEE      PTSUNNY   10  -2  58 SW22G29   30.33F WCI -10
KENOSHA*       SUNNY     12   1  61 SW15G21   30.35F WCI  -4
RACINE*        SUNNY     11   0  61 SW13      30.36F WCI  -4
BURLINGTON     SUNNY     10  -1  62 S14G21    30.34S WCI  -6
WAUKESHA       SUNNY      9  -2  61 S13       30.32F WCI  -7
WEST BEND      MOSUNNY   14   1  57 SW13      30.28F WCI   0
$$

INZ001>003-010>013-019-020-061600-
NORTHWEST INDIANA

CITY           SKY/WX    TMP DP  RH WIND       PRES   REMARKS
GARY*          MOSUNNY   12  -2  52 S10       30.47S WCI  -1
MICHIGAN CITY* NOT AVBL
RENSSELAER*    NOT AVBL
VALPARAISO     SUNNY      7  -1  70 S13       30.46F WCI  -9
$$

LMZ740>746-061600-
SOUTHERN LAKE MICHIGAN

STATION/POSITION TIME  SKY/WX   TEMP WIND        PRES    VSBY
                                AIR  DIR/SP/G
                 (UTC)          (F)  (DEG/KT/KT) (MB)    (MI)
HARRISON CRIB    1500            12  190/ 21/ 25   N/A
BURNHAM HARBOR   1500            14  190/  9/ 17   N/A
CALUMET HARBOR   1500            11  180/ 13/ 16 1029.3F
BURNS HARBOR     NOT AVBL
MICHIGAN CITY    1500             8  170/ 12/ 16   N/A
$$

ABBREVIATIONS USED IN REMARKS
   TC - TEMPERATURE IN CELSIUS
  WCI - WIND CHILL INDEX
   HX - HEAT INDEX
  VSB - VISIBILITY
$$


USA.gov is the U.S. government's official web portal to all federal, state and local government web resources and services.